Location: Newark
(7.0858°N, 171.3717°E)
Time: 07:27:12
(UTC+00:00)

Courier 1B - Pass Details

Date: 30 November 2020
Orbit: 962 x 1209 km, 28.3° (Epoch: 20 January)

Event Time Altitude Azimuth Distance (km) Brightness Sun altitude
Rises 09:00:36 0° 272° (W) 3,635 11.3 -39.0°
Reaches altitude 10° 09:03:42 10° 285° (WNW) 2,701 10.3 -39.7°
Enters shadow 09:05:58 19° 302° (WNW) 2,160 9.5 -40.3°
Maximum altitude 09:08:57 25° 339° (NNW) 1,859 - -40.9°
Drops below altitude 10° 09:14:23 10° 33° (NNE) 2,796 - -42.2°
Sets 09:17:40 0° 46° (NE) 3,790 - -42.9°
